This is the latest recevied weather packets stored in our database for station/object AB4KN. If no packets are shown the sender has not sent any weather packets the latest 10 day(s).
| Time | Temp. | Humidity | Pressure | Rain* | Wind** | Luminosity | Snow |
|---|---|---|---|---|---|---|---|
| 1777863290 | 13.33° C | 63% | 1023.8 hPa | 0 mm | - | 0 W/m² | - |
| 1777862986 | 13.89° C | 65% | 1023.9 hPa | 0 mm | - | 0 W/m² | - |
| 1777862683 | 13.89° C | 64% | 1023.9 hPa | 0 mm | - | 0 W/m² | - |
| 1777862380 | 13.89° C | 63% | 1023.8 hPa | 0 mm | - | 0 W/m² | - |
| 1777862077 | 13.89° C | 62% | 1023.8 hPa | 0 mm | - | 0 W/m² | - |
| 1777861773 | 13.89° C | 61% | 1023.8 hPa | 0 mm | - | 0 W/m² | - |
| 1777861469 | 14.44° C | 61% | 1023.6 hPa | 0 mm | - | 0 W/m² | - |
| 1777861166 | 14.44° C | 61% | 1023.7 hPa | 0 mm | - | 0 W/m² | - |
| 1777860863 | 14.44° C | 61% | 1023.3 hPa | 0 mm | - | 0 W/m² | - |
| 1777860560 | 15° C | 59% | 1023.5 hPa | 0 mm | - | 0 W/m² | - |
| 1777860257 | 15° C | 57% | 1023.4 hPa | 0 mm | - | 0 W/m² | - |
| 1777859954 | 15° C | 58% | 1023.1 hPa | 0 mm | - | 0 W/m² | - |
| 1777859649 | 15° C | 56% | 1023.1 hPa | 0 mm | - | 0 W/m² | - |
| 1777859346 | 15° C | 55% | 1023 hPa | 0 mm | - | 0 W/m² | - |
| 1777859042 | 15° C | 56% | 1023.3 hPa | 0 mm | - | 0 W/m² | - |
| 1777858739 | 15° C | 55% | 1022.7 hPa | 0 mm | - | 0 W/m² | - |
| 1777858437 | 15.56° C | 55% | 1022.7 hPa | 0 mm | - | 0 W/m² | - |
| 1777858133 | 15.56° C | 55% | 1022.6 hPa | 0 mm | - | 0 W/m² | - |
| 1777857831 | 15.56° C | 54% | 1022.6 hPa | 0 mm | - | 0 W/m² | - |
| 1777857529 | 15.56° C | 53% | 1022.7 hPa | 0 mm | - | 0 W/m² | - |
| 1777857225 | 15.56° C | 54% | 1022.7 hPa | 0 mm | - | 0 W/m² | - |
| 1777856921 | 15.56° C | 52% | 1022.5 hPa | 0 mm | - | 0 W/m² | - |
| 1777856616 | 16.11° C | 52% | 1022.3 hPa | 0 mm | - | 0 W/m² | - |
| 1777856313 | 16.11° C | 49% | 1022.3 hPa | 0 mm | - | 0 W/m² | - |
| 1777856010 | 16.67° C | 46% | 1022.2 hPa | 0 mm | - | 0 W/m² | - |
* Rain latest hour (hover to see other rain measurements)
** Current wind speed in m/s (hover to see current wind gust speed)